loading
DOY 175 | 2024-06-23T17:51:57Z

THOR ABLESTAR DEB, 120

Orbit data source: Space-Track

THOR ABLESTAR DEB, 120 is space debris in LEO originally from a launch on Thu, 29 Jun 1961 UTC launched from the Air Force Eastern Test Range (AFETR). Debris objects in space refer to the collection of defunct objects orbiting the Earth. Examples of debris include non-operational satellites, rocket bodies, and fragments generated from explosions, collisions, or faulty payload assembly.

Loading next visibility...
Loading greatness...
THOR ABLESTAR DEB details
NORAD ID120
COSPAR ID
1961-015E
Orbit
LEO
Last TLE update1 day ago
Origin
Flag of USUSAF SSD (US)
ManufacturerUnknown
BusUnknown
MotorUnknown
MassWet unknown, Dry mass unknown
Launch date (UTC)
1961-06-29 (63 years ago)
Launch vehicleUnknown
Launch site
Air Force Eastern Test Range (AFETR)
Object type
Payload
Rocket body
Debris
Radar Cross SectionMedium (>0.1 m² and <1 m²)
Predictive object data (real-time)
Latitude30.92588°
Longitude-109.68575°
Altitude730.668 km
Speed7.531 km/s
Apparent Right ascension19h 38m 19s
Apparent Declination-2° 45' 47"
Sunlit
Object is in daylight
Predictive observer data (real-time)
Local Sidereal Time05:01:02
Azimuth305.942° NW
Elevation-38.579°
Doppler factor1
Orbital elements
Apogee879.55 km
Perigee717.616 km
Semi-major axis7,176.72 km
Eccentricity0.0112819
Inclination66.7041°
RAAN163.3763°
Arg. of periapsis173.5503°
True anomaly186.55898°
Mean anomaly186.7079°
Mean motion3.56988 °/min
BSTAR0.00027943
Period100.84 mins
Definitive object data (Epoch: 2024-06-22T10:54:52.54Z)
Latitude0.00002°
Longitude88.53952°
Altitude882.765 km
Speed7.37 km/s
True Right ascension10h 53m 30s
True Declination0° 00' 00"
Sunlit
Object was in daylight at TLE epoch
TLE from 1 day ago
0 THOR ABLESTAR DEB
1 00120U 61015E   24174.45477477  .00000650  00000-0  27943-3 0  9998
2 00120  66.7041 163.3763 0112819 173.5503 186.7079 14.27467878244792
Epoch: 2024-06-22T10:54Z
No data available

THOR ABLESTAR DEB Visibility forecast

Observer location: 39.9160978°, -105.1181434, 0m alt.

THOR ABLESTAR DEB is not visible in the next 10 days
Span
Click to sort rows by Start time (UTC) header in descending order
Start Az.
Max El. time (UTC)
Max El. Az.
Max El.
End time (UTC)
End Az.